[[{"header":{"parameterUnit":"m.s-1","parameterCategory":2,"la1":30.2991,"la2":30.254,"lo1":-89.0895,"lo2":-89.0444,"dy":0.0017,"dx":0.0017,"nx":28,"ny":28,"refTime":"2024-07-27T03:00:00:Z","depth":"0","parameterNumber":2,"parameterNumberName":"U-component_of_CURRENTS"},"data":[0,0,0,0,0,0,0,0,0,0,0,0,0,0,0,0,0,0,0,0,0,0,0,0,0,0,0,0,0,0,0,0,0,0,0,0,0,0,0,0,0,0,0,0,0,0,0,0,0,0,0,0,0,0,0,0,0,0,0.2885,0.2885,0,0.2855,0.2854,0.2853,0.2818,0.2819,0.2819,0.2819,0.2755,0.2753,0.2751,0,0,0,0,0,0,0,0,0,0,0,0,0,0.2829,0.283,0.2885,0.2885,0.2885,0.2855,0.2854,0.2853,0.2818,0.2819,0.2819,0.2819,0.2755,0.2753,0.2751,0,0,0,0,0,0,0,0,0,0,0,0,0,0.2825,0.2831,0.2885,0.287,0.2869,0.2855,0.2854,0.2853,0.2818,0.2819,0.2819,0.2819,0.2756,0.2753,0.2751,0.2729,0,0,0.2742,0.2741,0,0,0,0,0,0,0,0,0.2825,0.2826,0.2872,0.2871,0.287,0.2847,0.2811,0.2812,0.2818,0.283,0.2819,0.2819,0.2787,0.2782,0.2766,0.2726,0.2723,0.2742,0.274,0.2739,0.2738,0,0,0,0,0,0,0,0.2826,0.2827,0.2865,0.2872,0.2871,0.2837,0.2837,0.281,0.2801,0.2829,0.2828,0.2836,0.2785,0.2768,0.2764,0.2722,0.2742,0.2739,0.2738,0.2737,0.2724,0.2725,0,0,0,0,0,0,0.2849,0.2828,0.2867,0.2865,0.2856,0.2839,0.2838,0.2848,0.2802,0.2798,0.2836,0.2835,0.2773,0.2767,0.2762,0.2781,0.2739,0.2736,0.2735,0.2722,0.2724,0.2725,0,0,0,0,0,0,0.2848,0.2852,0.2868,0.2851,0.2852,0.2841,0.2852,0.2848,0.2841,0.281,0.2803,0.2837,0.2773,0.2765,0.2747,0.2776,0.2735,0.2733,0.2721,0.2723,0.2725,0.2789,0,0,0,0,0,0,0.2846,0.2852,0.286,0.2853,0.2854,0.2866,0.2852,0.2847,0.2849,0.2847,0.2808,0.2801,0.2772,0.2751,0.2744,0.2772,0.273,0.2719,0.2722,0.2724,0.2785,0.2793,0.2799,0,0,0,0,0,0.2844,0.2854,0.2861,0.2865,0.2868,0.2867,0.2862,0.285,0.2849,0.2844,0.2822,0.2803,0.2763,0.2749,0.2741,0.2769,0.2718,0.2721,0.2724,0.2782,0.2791,0.2799,0,0,0,0,0,0,0.2824,0.2852,0.2859,0.2875,0.2877,0.2864,0.2859,0.2858,0.2836,0.2837,0.2803,0.2795,0.2803,0.2772,0.2758,0.2775,0.2744,0.2745,0.2791,0.28,0.2807,0.2844,0.2728,0,0,0,0,0,0.283,0.2848,0.2863,0.2873,0.2878,0.2872,0.287,0.2869,0.2856,0.2846,0.282,0.2803,0.2806,0.2791,0.2782,0.277,0.2793,0.2789,0.2796,0.2802,0.2829,0.289,0.2905,0.2735,0.2735,0.2735,0,0,0.2828,0.2843,0.2854,0.2871,0.2868,0.2873,0.2869,0.2875,0.288,0.2843,0.2829,0.2829,0.2813,0.2816,0.2816,0.279,0.2862,0.2806,0.2811,0.2835,0.2895,0.2911,0.2926,0.2737,0.2737,0.2736,0,0,0.2815,0.2844,0.2848,0.2859,0.2873,0.2877,0.2886,0.2883,0.2884,0.2874,0.2874,0.2898,0.2851,0.2872,0.2873,0.2914,0.291,0.2903,0.2951,0.301,0.3025,0.3038,0.3088,0.3105,0.2891,0.2891,0.2891,0,0.2801,0.282,0.2845,0.2849,0.2862,0.2884,0.2887,0.2894,0.2885,0.2897,0.2877,0.2898,0.289,0.2937,0.296,0.2935,0.2957,0.2916,0.3021,0.3035,0.3048,0.3095,0.3114,0.2895,0.2894,0.2894,0.2894,0,0.2791,0.281,0.2813,0.2834,0.2849,0.286,0.2889,0.29,0.2908,0.292,0.2965,0.2969,0.2984,0.2996,0.2987,0.308,0.3064,0.3036,0.3002,0.3069,0.3114,0.3133,0.29,0.2898,0.2897,0.2896,0,0,0.2729,0.2794,0.279,0.2806,0.2849,0.2855,0.2889,0.2923,0.2954,0.2967,0.301,0.3054,0.3078,0.3086,0.3097,0.3156,0.3274,0.3136,0.3138,0.3191,0.3401,0.3349,0.3363,0.3256,0.3259,0.3262,0.3396,0,0.2701,0.2718,0.2762,0.2779,0.279,0.2844,0.2873,0.2917,0.2953,0.2998,0.3059,0.3103,0.3104,0.3129,0.3194,0.3258,0.3324,0.324,0.3324,0.3327,0.3278,0.3384,0.3264,0.3369,0.3414,0.3417,0.3419,0,0.2661,0.2682,0.2701,0.2765,0.2775,0.2792,0.286,0.2892,0.2985,0.3018,0.3093,0.314,0.3255,0.3236,0.3393,0.3334,0.3387,0.3432,0.3437,0.3384,0.331,0.3309,0.34,0.3338,0.3447,0.3444,0.3442,0,0.2591,0.2635,0.2655,0.2674,0.2747,0.2767,0.2805,0.2889,0.2934,0.3046,0.3095,0.3215,0.3278,0.3379,0.3473,0.3443,0.3635,0.3591,0.3599,0.3595,0.351,0.3492,0.3559,0.372,0.372,0.3719,0.3719,0,0.2545,0.2554,0.2622,0.263,0.2655,0.272,0.2762,0.2826,0.2928,0.2989,0.3104,0.3177,0.332,0.3432,0.351,0.3616,0.3661,0.3653,0.3644,0.3526,0.3509,0.3462,0.342,0.3724,0.3723,0.3722,0.3721,0,0.2473,0.2519,0.254,0.2607,0.2624,0.2641,0.2728,0.2766,0.2872,0.2962,0.3007,0.3174,0.3317,0.3449,0.3618,0.3651,0.3669,0.3781,0.3632,0.3603,0.3531,0.3496,0.342,0.332,0.3827,0.3827,0.3827,0,0.2446,0.2448,0.2508,0.2518,0.2547,0.2582,0.2612,0.272,0.277,0.2947,0.2988,0.3165,0.3257,0.349,0.3605,0.3747,0.3647,0.3707,0.3638,0.3552,0.3507,0.3344,0.3253,0.3554,0.3552,0.355,0.3548,0,0.2394,0.2416,0.2442,0.246,0.2482,0.2508,0.2559,0.2589,0.2719,0.28,0.2912,0.3007,0.3236,0.3338,0.3534,0.3603,0.3525,0.3669,0.3628,0.3358,0.314,0.3028,0.3436,0.3531,0.3532,0.3534,0.3535,0.3535,0.2361,0.2364,0.2396,0.2408,0.242,0.2423,0.2418,0.2479,0.2536,0.2635,0.2772,0.288,0.3107,0.3364,0.3396,0.3436,0.3406,0.3405,0.3391,0.325,0.3083,0.3452,0.3495,0.3497,0.3498,0.3499,0.35,0,0.2326,0.2336,0.2344,0.2346,0.2316,0.2353,0.2374,0.2352,0.2365,0.2506,0.2581,0.2794,0.2922,0.3092,0.3261,0.3205,0.3034,0.3142,0.2905,0.2847,0.3242,0.316,0.3072,0.3072,0.3072,0.3072,0.3073,0.3073,0.2317,0.2309,0.2311,0.2247,0.2231,0.2174,0.2163,0.214,0.2208,0.2277,0.2397,0.2531,0.2847,0.3068,0.3084,0.3015,0.28,0.2675,0.2667,0.2983,0.3006,0.3028,0.2943,0.2811,0.2811,0.2143,0.2138,0.2135]},{"header":{"parameterUnit":"m.s-1","parameterCategory":2,"la1":30.2991,"la2":30.254,"lo1":-89.0895,"lo2":-89.0444,"dy":0.0017,"dx":0.0017,"nx":28,"ny":28,"refTime":"2024-07-27T03:00:00:Z","depth":"0","parameterNumber":3,"parameterNumberName":"V-component_of_CURRENTS"},"data":[0,0,0,0,0,0,0,0,0,0,0,0,0,0,0,0,0,0,0,0,0,0,0,0,0,0,0,0,0,0,0,0,0,0,0,0,0,0,0,0,0,0,0,0,0,0,0,0,0,0,0,0,0,0,0,0,0,0,0.014,0.0139,0,0.0047,0.0045,0.0044,-0.004,-0.004,-0.0041,-0.0042,-0.0177,-0.018,-0.0183,0,0,0,0,0,0,0,0,0,0,0,0,0,0.0148,0.0149,0.014,0.0139,0.0139,0.0047,0.0045,0.0044,-0.004,-0.0041,-0.0041,-0.0042,-0.0176,-0.018,-0.0184,0,0,0,0,0,0,0,0,0,0,0,0,0,0.0105,0.0149,0.014,0.0089,0.0084,0.0047,0.0045,0.0043,-0.004,-0.0041,-0.0041,-0.0042,-0.0175,-0.018,-0.0184,-0.0194,0,0,-0.0198,-0.02,0,0,0,0,0,0,0,0,0.0108,0.0104,0.0097,0.0093,0.0087,0.0018,-0.0002,-0.0037,-0.0039,0.0003,-0.0042,-0.0043,-0.0113,-0.0122,-0.0143,-0.02,-0.0206,-0.0199,-0.0201,-0.0203,-0.0205,0,0,0,0,0,0,0,0.0111,0.0107,0.0099,0.0097,0.009,0.0037,0.0031,-0.0009,-0.0053,-0.0001,-0.0006,-0.001,-0.0117,-0.0139,-0.0147,-0.0208,-0.0198,-0.0202,-0.0205,-0.0207,-0.0244,-0.0243,0,0,0,0,0,0,0.0137,0.0111,0.0102,0.0097,0.01,0.0039,0.0031,0.0037,-0.0051,-0.0064,-0.0009,-0.0013,-0.013,-0.0142,-0.0152,-0.0137,-0.0203,-0.0207,-0.021,-0.0246,-0.0244,-0.0242,0,0,0,0,0,0,0.0138,0.0138,0.0106,0.0104,0.0097,0.0041,0.0048,0.0036,0.0019,-0.0056,-0.0071,-0.0013,-0.0132,-0.0146,-0.018,-0.0144,-0.021,-0.0214,-0.0248,-0.0245,-0.0243,-0.0127,0,0,0,0,0,0,0.0139,0.0139,0.0151,0.0107,0.0098,0.01,0.0049,0.0035,0.002,0.0013,-0.0064,-0.0079,-0.0133,-0.0172,-0.0184,-0.0152,-0.0217,-0.025,-0.0247,-0.0244,-0.0133,-0.0121,-0.0111,0,0,0,0,0,0.0139,0.0168,0.0152,0.0151,0.0118,0.0102,0.0093,0.0045,0.0021,0.0024,-0.0032,-0.0076,-0.0159,-0.0175,-0.0189,-0.0157,-0.0252,-0.0248,-0.0244,-0.0139,-0.0124,-0.0111,0,0,0,0,0,0,0.0183,0.0161,0.0143,0.0165,0.0142,0.009,0.0089,0.0059,0.0017,0.0011,-0.0067,-0.0084,-0.0098,-0.014,-0.0156,-0.0155,-0.0207,-0.0206,-0.0122,-0.0108,-0.0097,-0.006,-0.0221,0,0,0,0,0,0.02,0.021,0.0181,0.0197,0.0192,0.0143,0.013,0.0103,0.0062,0.0042,-0.0011,-0.0059,-0.0092,-0.0111,-0.0151,-0.0156,-0.0184,-0.014,-0.0128,-0.0118,-0.0095,-0.0095,-0.0081,-0.0229,-0.0229,-0.0229,0,0,0.0221,0.021,0.0216,0.0206,0.0181,0.0186,0.0132,0.0128,0.0129,0.0036,0.002,-0.0026,-0.0085,-0.0092,-0.01,-0.0125,-0.0094,-0.0113,-0.0104,-0.0087,-0.0089,-0.0075,-0.0062,-0.0226,-0.0227,-0.0227,0,0,0.0268,0.0261,0.0283,0.0272,0.0254,0.0227,0.0234,0.0195,0.0174,0.0155,0.0097,0.0084,0.0014,-0.0004,-0.0026,0.003,-0.0035,0.0011,0.0099,0.0099,0.0111,0.0122,0.0091,0.0098,0.002,0.002,0.002,0,0.0294,0.0317,0.0287,0.0304,0.0307,0.0254,0.0281,0.0255,0.0209,0.0207,0.0168,0.0116,0.0067,0.0078,0.0095,0.0059,0.0029,0.0048,0.0115,0.0125,0.0133,0.0099,0.0106,0.0026,0.0025,0.0025,0.0024,0,0.0354,0.037,0.0385,0.0389,0.0389,0.0405,0.0375,0.0369,0.0338,0.0313,0.0314,0.0255,0.0229,0.0217,0.0166,0.0213,0.016,0.0126,0.0082,0.0156,0.0114,0.0119,0.0035,0.0033,0.0031,0.0029,0,0,0.0417,0.0427,0.043,0.0449,0.0439,0.0449,0.046,0.0462,0.0482,0.0441,0.0469,0.0429,0.0403,0.0379,0.0328,0.0333,0.036,0.0262,0.0259,0.0235,0.0334,0.0289,0.0288,0.033,0.0332,0.0333,0.0274,0,0.0471,0.0523,0.0514,0.0565,0.0591,0.0562,0.0581,0.0577,0.0555,0.0565,0.0531,0.0531,0.0461,0.0459,0.0454,0.038,0.0379,0.0378,0.0264,0.026,0.0215,0.0296,0.0266,0.0211,0.0278,0.0279,0.0279,0,0.0532,0.0557,0.0619,0.0657,0.067,0.0697,0.0728,0.0738,0.0735,0.0721,0.072,0.0672,0.0673,0.0605,0.054,0.0534,0.0455,0.0397,0.0393,0.032,0.0226,0.0151,0.0216,0.0037,0.0285,0.0285,0.0284,0,0.0586,0.0635,0.0689,0.0701,0.0733,0.0767,0.0787,0.0794,0.0823,0.0829,0.0851,0.0816,0.0811,0.0726,0.0592,0.0566,0.0511,0.0453,0.0341,0.0334,0.0274,0.026,0.0162,0.0431,0.0431,0.0431,0.0431,0,0.0648,0.069,0.0724,0.0754,0.0833,0.0837,0.0919,0.0922,0.0957,0.1018,0.0946,0.0983,0.0844,0.0779,0.0645,0.0509,0.0547,0.0381,0.0335,0.0311,0.0301,0.0113,0.003,0.0429,0.0429,0.043,0.043,0,0.0695,0.0712,0.0781,0.0837,0.0859,0.0921,0.1005,0.1064,0.1078,0.1156,0.1168,0.1118,0.1031,0.0871,0.0727,0.0584,0.035,0.0393,0.0358,0.031,0.0033,-0.0041,-0.0164,-0.0245,0.0264,0.0263,0.0262,0,0.0726,0.0763,0.0841,0.0893,0.0925,0.1012,0.1076,0.1119,0.1188,0.1246,0.1296,0.1236,0.1203,0.0957,0.07,0.0461,0.0314,0.0273,0.0234,0.0041,-0.0077,-0.0132,-0.0194,0.0184,0.0182,0.0181,0.018,0,0.0788,0.0813,0.0872,0.097,0.1052,0.1144,0.1242,0.1313,0.1377,0.1435,0.1494,0.1474,0.1233,0.0982,0.0648,0.0468,0.0142,0.0239,0.006,-0.0112,-0.0197,-0.0305,0.017,0.0169,0.017,0.0171,0.0171,0.0172,0.084,0.0894,0.097,0.1067,0.1157,0.1271,0.1361,0.1458,0.1569,0.1658,0.1634,0.1625,0.1257,0.0795,0.0519,0.0013,0.005,-0.0142,-0.021,-0.0242,-0.033,0.0114,0.0049,0.0049,0.005,0.005,0.005,0,0.0907,0.0966,0.1061,0.1177,0.1278,0.1312,0.1466,0.1558,0.1687,0.1754,0.1784,0.1607,0.1134,0.0674,0.0013,-0.0359,-0.0493,-0.056,-0.0652,-0.0689,-0.0283,-0.0298,-0.0466,-0.0465,-0.0465,-0.0465,-0.0465,-0.0465,0.095,0.1047,0.1093,0.1261,0.1338,0.1477,0.1568,0.1692,0.1781,0.1857,0.1853,0.182,0.1492,0.0279,-0.0572,-0.0779,-0.1006,-0.1071,-0.117,-0.0918,-0.0884,-0.0852,-0.0887,-0.1176,-0.1177,-0.1557,-0.1561,-0.1564]}],[{"header":{"parameterUnit":"m.s-1","parameterCategory":2,"la1":30.2991,"la2":30.254,"lo1":-89.0895,"lo2":-89.0444,"dy":0.0017,"dx":0.0017,"nx":28,"ny":28,"refTime":"2024-07-27T03:00:00:Z","depth":"2","parameterNumber":2,"parameterNumberName":"U-component_of_CURRENTS"},"data":[0,0,0,0,0,0,0,0,0,0,0,0,0,0,0,0,0,0,0,0,0,0,0,0,0,0,0,0,0,0,0,0,0,0,0,0,0,0,0,0,0,0,0,0,0,0,0,0,0,0,0,0,0,0,0,0,0,0,0.2249,0.2249,0,0.2209,0.2208,0.2208,0.2216,0.2217,0.2218,0.2219,0.2215,0.2215,0.2214,0,0,0,0,0,0,0,0,0,0,0,0,0,0.2333,0.2331,0.2249,0.2249,0.2248,0.2209,0.2208,0.2208,0.2216,0.2217,0.2218,0.2219,0.2216,0.2215,0.2214,0,0,0,0,0,0,0,0,0,0,0,0,0,0.2295,0.2331,0.2249,0.2248,0.2247,0.2209,0.2208,0.2208,0.2216,0.2217,0.2218,0.2219,0.2216,0.2215,0.2214,0.2183,0,0,0.221,0.2209,0,0,0,0,0,0,0,0,0.2297,0.2291,0.2249,0.2248,0.2247,0.2219,0.2237,0.2201,0.2216,0.2228,0.2219,0.222,0.2219,0.2218,0.2207,0.2183,0.2183,0.221,0.2209,0.2209,0.2208,0,0,0,0,0,0,0,0.2299,0.2293,0.2233,0.2248,0.2247,0.2249,0.2245,0.223,0.2218,0.2227,0.2227,0.2223,0.2219,0.2208,0.2207,0.2183,0.221,0.2209,0.2208,0.2208,0.2234,0.2236,0,0,0,0,0,0,0.2303,0.2295,0.2234,0.2232,0.2276,0.2247,0.2242,0.2227,0.2217,0.2217,0.2222,0.2223,0.2209,0.2208,0.2207,0.2266,0.2209,0.2208,0.2207,0.2233,0.2235,0.2236,0,0,0,0,0,0,0.2305,0.2297,0.2236,0.2264,0.2256,0.2244,0.2227,0.2225,0.2234,0.2213,0.2214,0.2235,0.221,0.2209,0.2223,0.2263,0.2207,0.2206,0.2231,0.2234,0.2236,0.2324,0,0,0,0,0,0,0.2307,0.2298,0.2283,0.2264,0.2255,0.2231,0.2226,0.2224,0.2228,0.2231,0.2224,0.2224,0.2211,0.2225,0.2222,0.226,0.2205,0.223,0.2232,0.2235,0.2319,0.2329,0.2337,0,0,0,0,0,0.231,0.2289,0.2282,0.2274,0.2235,0.2232,0.2228,0.2223,0.2228,0.2235,0.224,0.2225,0.224,0.2225,0.2221,0.226,0.2228,0.2232,0.2235,0.2315,0.2327,0.2337,0,0,0,0,0,0,0.2356,0.2287,0.2279,0.2249,0.2249,0.2234,0.2235,0.2233,0.2238,0.2247,0.2233,0.2233,0.2269,0.2245,0.2228,0.2276,0.2235,0.2238,0.2298,0.2309,0.2318,0.2321,0.2204,0,0,0,0,0,0.2347,0.2292,0.2272,0.2256,0.2257,0.2249,0.2245,0.2246,0.2248,0.2252,0.2249,0.2253,0.2273,0.2276,0.228,0.2291,0.2294,0.2316,0.2325,0.2333,0.2334,0.2385,0.24,0.2247,0.2247,0.2247,0,0,0.2339,0.2319,0.2275,0.2257,0.2258,0.226,0.2251,0.2258,0.2271,0.225,0.2272,0.2285,0.2285,0.2315,0.2327,0.2302,0.2379,0.2337,0.2344,0.234,0.239,0.2405,0.2419,0.2249,0.2249,0.2248,0,0,0.2331,0.231,0.2262,0.2273,0.2277,0.2276,0.2285,0.2282,0.2296,0.2311,0.2319,0.2356,0.2354,0.2377,0.2386,0.244,0.2431,0.2445,0.2485,0.2537,0.255,0.2561,0.2591,0.2605,0.2442,0.2442,0.2442,0,0.2319,0.2292,0.2261,0.2268,0.2279,0.229,0.2294,0.2308,0.2313,0.2335,0.2332,0.2386,0.2388,0.2448,0.2474,0.2463,0.2481,0.2447,0.255,0.2561,0.2572,0.2599,0.2613,0.2447,0.2446,0.2446,0.2445,0,0.2295,0.2288,0.229,0.2279,0.229,0.2305,0.2325,0.2349,0.237,0.2385,0.2451,0.2467,0.25,0.2519,0.2511,0.2593,0.258,0.2564,0.2525,0.2593,0.2617,0.263,0.2453,0.2452,0.245,0.2449,0,0,0.2201,0.2243,0.2247,0.2264,0.2303,0.2309,0.2354,0.2389,0.2429,0.2462,0.2521,0.2572,0.2593,0.2605,0.2619,0.2663,0.2757,0.2646,0.2647,0.268,0.2865,0.2781,0.2786,0.2767,0.2769,0.2771,0.2855,0,0.2187,0.2207,0.2232,0.2262,0.227,0.2323,0.2362,0.2408,0.2455,0.2517,0.2576,0.2635,0.2624,0.266,0.2706,0.2753,0.2794,0.2735,0.279,0.2791,0.2712,0.2799,0.2595,0.2646,0.2867,0.2869,0.2871,0,0.2141,0.2167,0.2191,0.2259,0.2269,0.2298,0.2378,0.2416,0.2517,0.2563,0.2643,0.2688,0.2782,0.2756,0.2867,0.2833,0.2853,0.2878,0.2881,0.2777,0.2731,0.2612,0.266,0.2892,0.289,0.2889,0.2887,0,0.208,0.2135,0.216,0.2184,0.2257,0.2294,0.2341,0.2429,0.2478,0.2605,0.266,0.2768,0.2831,0.2892,0.2938,0.2918,0.3045,0.302,0.296,0.2954,0.2774,0.2747,0.309,0.3089,0.3089,0.3089,0.3089,0,0.2042,0.2063,0.2141,0.2157,0.22,0.2263,0.2329,0.2397,0.2505,0.2571,0.268,0.2748,0.2871,0.2949,0.2978,0.3011,0.3077,0.2985,0.298,0.2798,0.2774,0.2972,0.2957,0.3092,0.3091,0.3091,0.309,0,0.1972,0.2023,0.2052,0.2138,0.217,0.2199,0.2313,0.2359,0.2472,0.2567,0.2616,0.2763,0.2868,0.2959,0.3068,0.3049,0.3096,0.3079,0.2849,0.2814,0.296,0.2949,0.304,0.3038,0.3036,0.3035,0.3034,0,0.1947,0.195,0.203,0.205,0.2096,0.2161,0.2206,0.2328,0.238,0.2556,0.2591,0.2741,0.2809,0.294,0.2961,0.301,0.3063,0.2828,0.2747,0.2974,0.2961,0.2952,0.2943,0.2551,0.2546,0.2542,0.2539,0,0.1893,0.1919,0.1948,0.199,0.2035,0.2084,0.2163,0.2192,0.2333,0.242,0.2522,0.2598,0.2729,0.27,0.2771,0.2762,0.2809,0.2743,0.3068,0.2585,0.2517,0.2502,0.2509,0.2502,0.2505,0.2508,0.251,0.2512,0.186,0.1859,0.1897,0.193,0.1968,0.1991,0.1994,0.2078,0.2141,0.2241,0.2366,0.2425,0.2494,0.2499,0.2447,0.2427,0.2606,0.2513,0.2525,0.2541,0.246,0.2391,0.2337,0.2339,0.2342,0.2344,0.2345,0,0.1812,0.1824,0.1841,0.186,0.1853,0.1918,0.195,0.1933,0.1957,0.2095,0.2169,0.2054,0.2056,0.2129,0.2046,0.2055,0.202,0.1977,0.1923,0.1963,0.1998,0.1886,0.1612,0.1609,0.1607,0.1604,0,0,0.1791,0.1776,0.1776,0.1742,0.1759,0.1727,0.1719,0.1709,0.177,0.1788,0.1831,0.1999,0.2095,0.1832,0.1805,0.1701,0.1813,0.1637,0.2235,0.2214,0.2245,0.2328,0.2204,0,0,0,0,0]},{"header":{"parameterUnit":"m.s-1","parameterCategory":2,"la1":30.2991,"la2":30.254,"lo1":-89.0895,"lo2":-89.0444,"dy":0.0017,"dx":0.0017,"nx":28,"ny":28,"refTime":"2024-07-27T03:00:00:Z","depth":"2","parameterNumber":3,"parameterNumberName":"V-component_of_CURRENTS"},"data":[0,0,0,0,0,0,0,0,0,0,0,0,0,0,0,0,0,0,0,0,0,0,0,0,0,0,0,0,0,0,0,0,0,0,0,0,0,0,0,0,0,0,0,0,0,0,0,0,0,0,0,0,0,0,0,0,0,0,0.0015,0.0014,0,-0.0062,-0.0064,-0.0065,-0.0117,-0.0117,-0.0118,-0.0118,-0.0236,-0.0239,-0.0242,0,0,0,0,0,0,0,0,0,0,0,0,0,0.0031,0.0032,0.0015,0.0014,0.0013,-0.0062,-0.0064,-0.0065,-0.0117,-0.0117,-0.0118,-0.0118,-0.0235,-0.0239,-0.0243,0,0,0,0,0,0,0,0,0,0,0,0,0,-0.0006,0.0032,0.0015,-0.0021,-0.0024,-0.0062,-0.0064,-0.0065,-0.0117,-0.0117,-0.0118,-0.0118,-0.0234,-0.0239,-0.0243,-0.0265,0,0,-0.0257,-0.0259,0,0,0,0,0,0,0,0,-0.0003,-0.0006,-0.0015,-0.0018,-0.0022,-0.0079,-0.0101,-0.0133,-0.0117,-0.0084,-0.0118,-0.0118,-0.0186,-0.0194,-0.0211,-0.0271,-0.0276,-0.0257,-0.026,-0.0262,-0.0263,0,0,0,0,0,0,0,-0.0001,-0.0004,-0.0018,-0.0015,-0.002,-0.0062,-0.0067,-0.0108,-0.0135,-0.0087,-0.009,-0.0096,-0.0189,-0.0206,-0.0214,-0.0278,-0.0257,-0.0261,-0.0264,-0.0266,-0.0364,-0.0364,0,0,0,0,0,0,0.0018,-0.0001,-0.0016,-0.002,-0.0011,-0.0061,-0.0067,-0.0062,-0.0134,-0.0144,-0.0095,-0.0098,-0.0198,-0.0209,-0.0218,-0.0238,-0.0262,-0.0266,-0.0269,-0.0364,-0.0364,-0.0364,0,0,0,0,0,0,0.0019,0.0018,-0.0012,-0.0012,-0.0018,-0.006,-0.0055,-0.0063,-0.008,-0.0139,-0.0151,-0.0103,-0.0199,-0.0212,-0.0257,-0.0243,-0.0268,-0.0272,-0.0365,-0.0364,-0.0364,-0.0284,0,0,0,0,0,0,0.002,0.0019,0.003,-0.001,-0.0017,-0.003,-0.0055,-0.0065,-0.0082,-0.0086,-0.015,-0.0161,-0.02,-0.025,-0.0261,-0.025,-0.0276,-0.0365,-0.0364,-0.0364,-0.0287,-0.0281,-0.0277,0,0,0,0,0,0.0021,0.0036,0.0031,0.0029,-0.0,-0.0029,-0.0037,-0.0071,-0.0082,-0.0088,-0.0133,-0.0159,-0.0257,-0.0254,-0.0267,-0.0257,-0.0365,-0.0365,-0.0364,-0.0289,-0.0282,-0.0277,0,0,0,0,0,0,0.0049,0.0031,0.0025,0.0035,0.0009,-0.0037,-0.0044,-0.0066,-0.0105,-0.011,-0.0165,-0.018,-0.0213,-0.0249,-0.0244,-0.0286,-0.0313,-0.0315,-0.0251,-0.0245,-0.024,-0.0216,-0.0279,0,0,0,0,0,0.0063,0.007,0.0041,0.0049,0.004,0.0,-0.0015,-0.0037,-0.0077,-0.0095,-0.0137,-0.0183,-0.0223,-0.0245,-0.0288,-0.0313,-0.0339,-0.0314,-0.0309,-0.0304,-0.0294,-0.032,-0.0316,-0.0364,-0.0364,-0.0364,0,0,0.0077,0.0068,0.0073,0.0055,0.0033,0.0025,-0.001,-0.0029,-0.0036,-0.0102,-0.0125,-0.017,-0.0227,-0.0255,-0.0272,-0.0283,-0.0306,-0.0304,-0.0299,-0.0292,-0.032,-0.0315,-0.031,-0.0364,-0.0364,-0.0364,0,0,0.01,0.01,0.0109,0.0093,0.0067,0.0045,0.0044,0.0002,-0.0016,-0.0047,-0.0092,-0.0125,-0.019,-0.0221,-0.0246,-0.0239,-0.0279,-0.0255,-0.0207,-0.0232,-0.0228,-0.0224,-0.0251,-0.025,-0.025,-0.0249,-0.0249,0,0.0121,0.0129,0.0105,0.0105,0.0103,0.006,0.0066,0.004,-0.0011,-0.0021,-0.0044,-0.012,-0.0169,-0.0193,-0.0193,-0.0224,-0.0249,-0.0223,-0.0223,-0.022,-0.0218,-0.0246,-0.0247,-0.0245,-0.0246,-0.0246,-0.0247,0,0.0143,0.0152,0.0155,0.015,0.0141,0.0139,0.0107,0.0094,0.0069,0.0041,0.001,-0.0052,-0.0092,-0.0114,-0.0155,-0.0161,-0.0188,-0.0213,-0.0232,-0.0208,-0.024,-0.0242,-0.024,-0.0241,-0.0242,-0.0243,0,0,0.019,0.0178,0.018,0.0192,0.0169,0.0168,0.0161,0.0145,0.0153,0.01,0.0107,0.0035,0.0006,-0.0025,-0.0074,-0.0098,-0.011,-0.0145,-0.0148,-0.0158,-0.0167,-0.0198,-0.0204,-0.0135,-0.0135,-0.0135,-0.0194,0,0.0219,0.0241,0.0223,0.0249,0.0261,0.0233,0.0238,0.0217,0.0191,0.0184,0.0125,0.0108,0.0039,0.0031,-0.0007,-0.0081,-0.0112,-0.0091,-0.02,-0.0203,-0.0223,-0.0206,-0.0173,-0.0224,-0.0196,-0.0197,-0.0197,0,0.0248,0.0261,0.0293,0.0314,0.0319,0.0333,0.0347,0.0342,0.0313,0.0295,0.0262,0.0212,0.017,0.0113,0.0003,0.0018,-0.0067,-0.0129,-0.0133,-0.019,-0.0237,-0.0246,-0.023,-0.0201,-0.0201,-0.02,-0.02,0,0.0296,0.0316,0.035,0.0355,0.0365,0.0387,0.0398,0.0382,0.0396,0.0374,0.0387,0.0311,0.0293,0.0182,0.0041,0.0025,-0.008,-0.0118,-0.0228,-0.0232,-0.0239,-0.0243,-0.0194,-0.0194,-0.0193,-0.0193,-0.0193,0,0.0337,0.0365,0.0384,0.0403,0.0463,0.045,0.0506,0.0498,0.0508,0.0541,0.0457,0.0465,0.031,0.0223,0.0081,-0.0075,-0.0052,-0.0213,-0.0246,-0.0212,-0.0213,-0.0222,-0.0225,-0.0196,-0.0195,-0.0195,-0.0194,0,0.0374,0.0382,0.0427,0.0462,0.0485,0.0528,0.059,0.0625,0.0625,0.067,0.0675,0.0591,0.0472,0.0304,0.0126,-0.001,-0.0161,-0.0227,-0.0178,-0.0204,-0.0308,-0.0306,-0.0348,-0.035,-0.0351,-0.0352,-0.0353,0,0.0395,0.042,0.0479,0.052,0.0543,0.061,0.0659,0.0683,0.0725,0.0743,0.0772,0.068,0.0611,0.0336,0.0089,-0.015,-0.0182,-0.0278,-0.0308,-0.0295,-0.0322,-0.0318,-0.0314,-0.0287,-0.0287,-0.0288,-0.0288,0,0.0432,0.0451,0.0488,0.0578,0.0645,0.0718,0.0794,0.0845,0.0876,0.0918,0.093,0.0882,0.0619,0.0376,0.0052,-0.0112,-0.0237,-0.0293,-0.0279,-0.0255,-0.0243,-0.0268,-0.0265,-0.029,-0.029,-0.029,-0.029,-0.0289,0.0461,0.0494,0.0551,0.0638,0.072,0.0813,0.0878,0.0954,0.1034,0.1093,0.104,0.0986,0.0711,0.0292,0.0012,-0.0271,-0.0275,-0.0365,-0.0361,-0.0358,-0.0343,-0.0334,-0.0395,-0.0396,-0.0396,-0.0396,-0.0396,0,0.0488,0.0531,0.061,0.0707,0.0801,0.0845,0.0957,0.102,0.1115,0.1173,0.1182,0.0938,0.0659,0.0354,-0.0071,-0.0338,-0.0347,-0.041,-0.0356,-0.0352,-0.035,-0.0332,-0.0382,-0.0383,-0.0384,-0.0384,0,0,0.05,0.0564,0.0603,0.0755,0.0837,0.0957,0.1022,0.1115,0.1181,0.1236,0.1224,0.1142,0.0764,0.0467,0.0105,-0.0132,-0.0178,-0.0179,-0.0163,-0.0053,-0.0047,-0.03,-0.0266,0,0,0,0,0]}],[{"header":{"parameterUnit":"m.s-1","parameterCategory":2,"la1":30.2991,"la2":30.254,"lo1":-89.0895,"lo2":-89.0444,"dy":0.0017,"dx":0.0017,"nx":28,"ny":28,"refTime":"2024-07-27T03:00:00:Z","depth":"4","parameterNumber":2,"parameterNumberName":"U-component_of_CURRENTS"},"data":[0,0,0,0,0,0,0,0,0,0,0,0,0,0,0,0,0,0,0,0,0,0,0,0,0,0,0,0,0,0,0,0,0,0,0,0,0,0,0,0,0,0,0,0,0,0,0,0,0,0,0,0,0,0,0,0,0,0,0.1114,0.1115,0,0.1214,0.1215,0.1216,0.1278,0.1278,0.1279,0.1279,0.1344,0.1345,0.1346,0,0,0,0,0,0,0,0,0,0,0,0,0,0.0918,0.0922,0.1114,0.1115,0.1116,0.1213,0.1215,0.1216,0.1278,0.1278,0.1279,0.1279,0.1343,0.1345,0.1347,0,0,0,0,0,0,0,0,0,0,0,0,0,0.1008,0.0923,0.1114,0.1159,0.1165,0.1213,0.1215,0.1216,0.1278,0.1278,0.1279,0.128,0.1343,0.1345,0.1347,0.1348,0,0,0.1353,0.1354,0,0,0,0,0,0,0,0,0.1003,0.1016,0.1151,0.1156,0.1162,0.1234,0.1169,0.1259,0.1278,0.1234,0.1279,0.128,0.1304,0.1309,0.1326,0.1351,0.1354,0.1353,0.1354,0.1355,0.1356,0,0,0,0,0,0,0,0.0997,0.1011,0.1153,0.1153,0.1159,0.1155,0.1169,0.1186,0.1263,0.1238,0.1243,0.1255,0.1307,0.1324,0.1328,0.1355,0.1353,0.1355,0.1356,0.1357,0.1455,0.1457,0,0,0,0,0,0,0.0989,0.1006,0.115,0.1156,0.1083,0.1158,0.1174,0.121,0.1264,0.1274,0.1254,0.1257,0.1321,0.1326,0.1331,0.1411,0.1355,0.1357,0.1358,0.1454,0.1456,0.1457,0,0,0,0,0,0,0.0985,0.1002,0.1146,0.1081,0.11,0.1161,0.1201,0.1212,0.1263,0.1277,0.1286,0.1298,0.1321,0.1328,0.1371,0.141,0.1358,0.136,0.1452,0.1454,0.1456,0.1521,0,0,0,0,0,0,0.0979,0.1,0.1041,0.1082,0.1103,0.1197,0.1201,0.1213,0.1267,0.1273,0.1316,0.1321,0.1322,0.1368,0.1373,0.1412,0.1362,0.145,0.1453,0.1456,0.1517,0.1525,0.1532,0,0,0,0,0,0.0972,0.1019,0.1043,0.1061,0.1153,0.1198,0.1209,0.1252,0.1269,0.1299,0.1324,0.1322,0.1388,0.1371,0.1377,0.1417,0.1449,0.1452,0.1455,0.1514,0.1524,0.1532,0,0,0,0,0,0,0.0956,0.1032,0.1058,0.1128,0.117,0.1209,0.1244,0.1271,0.1317,0.1327,0.1339,0.1346,0.1399,0.1397,0.1377,0.1452,0.1419,0.1423,0.1461,0.1471,0.1478,0.1471,0.1363,0,0,0,0,0,0.0971,0.1029,0.1085,0.1141,0.1165,0.1211,0.1241,0.127,0.1306,0.133,0.136,0.1386,0.1411,0.1432,0.1452,0.1493,0.1486,0.1522,0.1529,0.1536,0.1534,0.1556,0.1565,0.1467,0.1467,0.1467,0,0,0.0981,0.1027,0.1064,0.1142,0.1177,0.1217,0.1232,0.1285,0.1323,0.1326,0.1394,0.1416,0.1428,0.1475,0.1499,0.1482,0.1562,0.154,0.1545,0.154,0.156,0.1569,0.1577,0.1469,0.1469,0.1469,0,0,0.1001,0.1071,0.1116,0.1153,0.1213,0.1243,0.1265,0.1325,0.1362,0.1419,0.1431,0.1474,0.1521,0.1537,0.1548,0.1606,0.16,0.1623,0.1659,0.1681,0.1689,0.1696,0.1707,0.1715,0.1628,0.1628,0.1628,0,0.1015,0.1078,0.1132,0.117,0.1206,0.1257,0.1297,0.1339,0.1407,0.1439,0.1449,0.1533,0.1546,0.1597,0.162,0.1624,0.1632,0.1626,0.169,0.1697,0.1703,0.1713,0.172,0.1631,0.1631,0.163,0.163,0,0.1044,0.1108,0.1133,0.1205,0.125,0.1295,0.1351,0.1408,0.1458,0.1495,0.1572,0.1599,0.1649,0.1664,0.1661,0.1719,0.1711,0.1697,0.1667,0.1717,0.1724,0.1731,0.1636,0.1635,0.1634,0.1633,0,0,0.1045,0.1141,0.115,0.1189,0.1275,0.1309,0.1382,0.1457,0.1509,0.1576,0.1639,0.1694,0.1723,0.1737,0.1752,0.1769,0.1821,0.1758,0.1758,0.1768,0.1873,0.1762,0.1758,0.1826,0.1828,0.1829,0.1864,0,0.1057,0.1123,0.1174,0.1246,0.129,0.1362,0.1421,0.1493,0.1562,0.1634,0.1677,0.1743,0.1747,0.1787,0.1809,0.1827,0.1841,0.1813,0.1824,0.1824,0.1717,0.1762,0.1833,0.1868,0.187,0.1871,0.1872,0,0.1067,0.1112,0.1181,0.1277,0.1303,0.1357,0.1468,0.153,0.1631,0.1687,0.1765,0.1801,0.1869,0.1848,0.191,0.19,0.1891,0.1886,0.1887,0.1761,0.1724,0.1806,0.1883,0.1882,0.1881,0.188,0.188,0,0.1024,0.112,0.1176,0.1208,0.1318,0.1374,0.1443,0.1551,0.1613,0.1733,0.1792,0.187,0.1929,0.1942,0.1957,0.1947,0.1992,0.1973,0.1857,0.185,0.191,0.1902,0.1984,0.1984,0.1984,0.1984,0.1984,0,0.1014,0.1061,0.1166,0.1195,0.1271,0.136,0.1453,0.1539,0.1651,0.1722,0.1824,0.1883,0.1957,0.1993,0.198,0.1947,0.202,0.1866,0.1852,0.1938,0.1933,0.1915,0.1906,0.1985,0.1985,0.1985,0.1985,0,0.0966,0.1034,0.1104,0.1217,0.1259,0.1317,0.1455,0.1516,0.1644,0.1743,0.1787,0.1917,0.1977,0.2012,0.2036,0.1975,0.1946,0.1902,0.2,0.199,0.1784,0.1779,0.1788,0.1784,0.1781,0.1779,0.1777,0,0.0947,0.0979,0.1098,0.1142,0.1203,0.13,0.1367,0.1503,0.157,0.1745,0.1778,0.1887,0.1953,0.1912,0.1951,0.1923,0.1885,0.186,0.181,0.1779,0.1765,0.1764,0.1763,0.1772,0.1771,0.177,0.1769,0,0.0905,0.0957,0.1006,0.1092,0.1171,0.1244,0.1352,0.1387,0.1543,0.1663,0.1738,0.1768,0.1825,0.1844,0.1835,0.1804,0.1878,0.1828,0.1833,0.1785,0.1759,0.1748,0.1751,0.1759,0.176,0.1761,0.1762,0,0.0872,0.0889,0.0959,0.1032,0.1117,0.1171,0.1236,0.1319,0.1396,0.1587,0.1601,0.1714,0.1816,0.1782,0.177,0.1742,0.1708,0.164,0.1654,0.1667,0.1606,0.1554,0.1481,0,0,0,0,0,0.083,0.084,0.0895,0.0966,0.1046,0.1101,0.1218,0.1285,0.1426,0.1445,0.1521,0.1567,0.1588,0.1638,0.158,0.1691,0.1698,0.1615,0.1624,0.17,0.1712,0.165,0,0,0,0,0,0,0.08,0.0837,0.0862,0.0896,0.0933,0.1013,0.1084,0.1182,0.12,0.1346,0.1366,0.147,0.1506,0.1603,0.1551,0.1561,0.1533,0.1677,0.1673,0.1693,0.1704,0.1714,0.1654,0,0,0,0,0]},{"header":{"parameterUnit":"m.s-1","parameterCategory":2,"la1":30.2991,"la2":30.254,"lo1":-89.0895,"lo2":-89.0444,"dy":0.0017,"dx":0.0017,"nx":28,"ny":28,"refTime":"2024-07-27T03:00:00:Z","depth":"4","parameterNumber":3,"parameterNumberName":"V-component_of_CURRENTS"},"data":[0,0,0,0,0,0,0,0,0,0,0,0,0,0,0,0,0,0,0,0,0,0,0,0,0,0,0,0,0,0,0,0,0,0,0,0,0,0,0,0,0,0,0,0,0,0,0,0,0,0,0,0,0,0,0,0,0,0,0.0084,0.0083,0,0.0021,0.0021,0.002,-0.0002,-0.0002,-0.0001,-0.0001,-0.0081,-0.0083,-0.0086,0,0,0,0,0,0,0,0,0,0,0,0,0,0.0178,0.0176,0.0084,0.0083,0.0082,0.0022,0.0021,0.002,-0.0002,-0.0002,-0.0001,-0.0001,-0.008,-0.0083,-0.0086,0,0,0,0,0,0,0,0,0,0,0,0,0,0.0127,0.0176,0.0084,0.0065,0.0063,0.0022,0.002,0.0019,-0.0002,-0.0002,-0.0001,-0.0001,-0.0079,-0.0083,-0.0086,-0.012,0,0,-0.0098,-0.0099,0,0,0,0,0,0,0,0,0.013,0.0124,0.0069,0.0066,0.0064,0.0019,0.0025,-0.0028,-0.0002,0.0021,-0.0001,-0.0,-0.0049,-0.0055,-0.0069,-0.0124,-0.0127,-0.0098,-0.01,-0.0102,-0.0103,0,0,0,0,0,0,0,0.0134,0.0126,0.0058,0.0068,0.0065,0.0058,0.0052,0.0014,-0.0018,0.0019,0.0018,0.0013,-0.005,-0.0066,-0.0072,-0.0129,-0.0098,-0.0101,-0.0104,-0.0105,-0.022,-0.0221,0,0,0,0,0,0,0.0144,0.0129,0.006,0.0056,0.0101,0.0056,0.0049,0.0032,-0.0017,-0.0023,0.0012,0.0012,-0.006,-0.0067,-0.0074,-0.0116,-0.0102,-0.0105,-0.0107,-0.0219,-0.022,-0.0221,0,0,0,0,0,0,0.0146,0.0137,0.0062,0.0093,0.0083,0.0054,0.0035,0.003,0.0015,-0.0021,-0.0028,0.0003,-0.006,-0.0069,-0.011,-0.0119,-0.0107,-0.011,-0.0218,-0.0219,-0.022,-0.0201,0,0,0,0,0,0,0.0148,0.0138,0.0128,0.0093,0.0082,0.0038,0.0035,0.0029,0.0012,0.0011,-0.0032,-0.0039,-0.006,-0.0104,-0.0113,-0.0124,-0.0113,-0.0217,-0.0219,-0.022,-0.02,-0.0201,-0.0202,0,0,0,0,0,0.0152,0.0133,0.0128,0.0119,0.0069,0.0037,0.003,0.0011,0.0011,-0.0,-0.0028,-0.0038,-0.012,-0.0108,-0.0119,-0.0131,-0.0216,-0.0218,-0.022,-0.02,-0.0201,-0.0202,0,0,0,0,0,0,0.0166,0.0129,0.0122,0.0092,0.0069,0.0034,0.0022,0.001,-0.0021,-0.0022,-0.0052,-0.0062,-0.0101,-0.0122,-0.0107,-0.0169,-0.0169,-0.0173,-0.015,-0.0152,-0.0152,-0.0136,-0.0116,0,0,0,0,0,0.0166,0.0143,0.0111,0.0088,0.0078,0.0051,0.0036,0.0023,-0.0007,-0.002,-0.0048,-0.0082,-0.0119,-0.0138,-0.0173,-0.021,-0.0226,-0.0224,-0.0225,-0.0225,-0.0221,-0.0258,-0.0261,-0.0227,-0.0227,-0.0227,0,0,0.0163,0.0142,0.0127,0.0091,0.0072,0.0057,0.0043,0.002,0.0008,-0.0025,-0.0054,-0.0088,-0.013,-0.0169,-0.0188,-0.0186,-0.0244,-0.0228,-0.0227,-0.0223,-0.026,-0.0264,-0.0266,-0.0228,-0.0228,-0.0228,0,0,0.0156,0.0131,0.0115,0.0099,0.0073,0.0057,0.0053,0.0019,0.0004,-0.003,-0.0057,-0.0095,-0.0148,-0.018,-0.0202,-0.0231,-0.0248,-0.0243,-0.0234,-0.027,-0.0273,-0.0276,-0.0297,-0.0301,-0.0242,-0.0242,-0.0242,0,0.0159,0.0135,0.0106,0.0094,0.0088,0.0061,0.0055,0.0029,-0.0013,-0.0026,-0.0035,-0.0117,-0.0152,-0.02,-0.021,-0.0232,-0.0249,-0.0224,-0.027,-0.0273,-0.0276,-0.0297,-0.0302,-0.0241,-0.0241,-0.0241,-0.0241,0,0.0142,0.013,0.0121,0.0101,0.0087,0.0075,0.0048,0.003,0.0012,-0.0012,-0.0062,-0.0116,-0.0157,-0.0183,-0.0206,-0.0249,-0.0253,-0.0266,-0.0262,-0.0278,-0.0299,-0.0305,-0.024,-0.024,-0.0241,-0.0241,0,0,0.0138,0.0116,0.0116,0.0121,0.0094,0.0085,0.0065,0.0041,0.0036,-0.0018,-0.0036,-0.0112,-0.0135,-0.0163,-0.0203,-0.0242,-0.0282,-0.026,-0.0262,-0.027,-0.0353,-0.0333,-0.0338,-0.0302,-0.0303,-0.0304,-0.0357,0,0.0141,0.0138,0.0119,0.0122,0.0124,0.0102,0.0092,0.0066,0.004,0.0013,-0.0054,-0.0086,-0.013,-0.0146,-0.0196,-0.0258,-0.0297,-0.0265,-0.0345,-0.0347,-0.032,-0.0344,-0.0307,-0.0361,-0.0363,-0.0364,-0.0365,0,0.0136,0.0139,0.0146,0.0153,0.0152,0.015,0.0145,0.0129,0.0083,0.0063,0.0012,-0.0034,-0.0103,-0.0134,-0.0247,-0.0224,-0.0285,-0.0336,-0.034,-0.0331,-0.0339,-0.0346,-0.0375,-0.0374,-0.0374,-0.0373,-0.0372,0,0.0163,0.0162,0.0177,0.0176,0.0171,0.0176,0.0175,0.0147,0.0147,0.0099,0.0097,0.0002,-0.003,-0.013,-0.0237,-0.024,-0.0358,-0.0374,-0.0417,-0.0416,-0.0423,-0.042,-0.0455,-0.0455,-0.0455,-0.0455,-0.0454,0,0.0176,0.0189,0.0196,0.0202,0.0231,0.0214,0.0236,0.022,0.0204,0.0212,0.0131,0.0114,-0.0031,-0.0115,-0.0222,-0.0331,-0.0345,-0.0416,-0.0432,-0.0414,-0.041,-0.0427,-0.0423,-0.0456,-0.0456,-0.0456,-0.0455,0,0.0195,0.0198,0.022,0.0232,0.0243,0.0263,0.0292,0.0306,0.0289,0.0297,0.0289,0.0199,0.0091,-0.0054,-0.0213,-0.0292,-0.0411,-0.0448,-0.0407,-0.0418,-0.0447,-0.0442,-0.0496,-0.0496,-0.0496,-0.0496,-0.0496,0,0.0202,0.0215,0.0249,0.0275,0.0284,0.0318,0.0346,0.0348,0.0368,0.0351,0.0356,0.0261,0.0186,-0.0011,-0.018,-0.0377,-0.0409,-0.046,-0.0472,-0.0444,-0.0454,-0.0449,-0.0444,-0.0496,-0.0496,-0.0496,-0.0496,0,0.0214,0.0228,0.0247,0.0307,0.0347,0.0393,0.0433,0.0459,0.0463,0.0455,0.043,0.032,0.0195,0.0011,-0.0143,-0.0291,-0.0423,-0.0459,-0.0461,-0.0472,-0.0444,-0.0452,-0.0448,-0.0495,-0.0495,-0.0495,-0.0495,0,0.0223,0.0242,0.0276,0.033,0.039,0.0448,0.0469,0.0499,0.0518,0.0507,0.0496,0.0357,0.0269,0.0055,-0.0091,-0.023,-0.0271,-0.0308,-0.0318,-0.032,-0.0262,-0.0199,-0.0189,0,0,0,0,0,0.0225,0.0247,0.0298,0.0358,0.0425,0.0462,0.0516,0.0532,0.0547,0.055,0.053,0.0417,0.0209,0.0104,-0.0031,-0.0115,-0.0315,-0.0278,-0.0367,-0.0493,-0.0493,-0.0454,0,0,0,0,0,0,0.0221,0.0261,0.0291,0.0378,0.0428,0.05,0.054,0.0552,0.0552,0.0549,0.0437,0.0393,0.0177,0.029,-0.003,-0.0076,-0.0148,-0.038,-0.0382,-0.0492,-0.0493,-0.0493,-0.0453,0,0,0,0,0]}]]